[[{"header":{"parameterUnit":"m.s-1","parameterCategory":1,"la1":30.2991,"la2":30.254,"lo1":-89.0895,"lo2":-89.0444,"dy":0.0017,"dx":0.0017,"nx":28,"ny":28,"refTime":"2024-07-17T09:00:00:Z","depth":0,"parameterNumber":2,"parameterNumberName":"U-component_of_WINDS"},"data":[0,0,0,0,0,0,0,0,0,0,0,0,0,0,0,0,0,0,0,0,0,0,0,0,0,0,0,0,0,0,0,0,0,0,0,0,0,0,0,0,0,0,0,0,0,0,0,0,0,0,0,0,0,0,0,0,0,0,-0.1317,-0.1314,0,-0.1048,-0.1044,-0.1041,-0.0916,-0.0916,-0.0916,-0.0917,-0.0636,-0.0629,-0.0621,0,0,0,0,0,0,0,0,0,0,0,0,0,-0.172,-0.1714,-0.1318,-0.1314,-0.1311,-0.1048,-0.1044,-0.1041,-0.0916,-0.0916,-0.0917,-0.0917,-0.0639,-0.063,-0.0621,0,0,0,0,0,0,0,0,0,0,0,0,0,-0.1507,-0.1711,-0.1318,-0.1217,-0.1205,-0.1049,-0.1044,-0.104,-0.0916,-0.0916,-0.0917,-0.0917,-0.0642,-0.0631,-0.0619,-0.0542,0,0,-0.0584,-0.0579,0,0,0,0,0,0,0,0,-0.152,-0.1493,-0.1235,-0.1224,-0.121,-0.1016,-0.1083,-0.0873,-0.0916,-0.1026,-0.0917,-0.0917,-0.0762,-0.0741,-0.0689,-0.0529,-0.0517,-0.0583,-0.0576,-0.0571,-0.0568,0,0,0,0,0,0,0,-0.1535,-0.1504,-0.121,-0.1232,-0.1216,-0.1184,-0.1154,-0.1043,-0.0895,-0.1016,-0.1006,-0.0976,-0.0755,-0.0701,-0.0682,-0.0513,-0.0584,-0.0573,-0.0566,-0.0562,-0.0273,-0.0272,0,0,0,0,0,0,-0.1566,-0.1517,-0.1219,-0.1202,-0.1369,-0.1176,-0.1143,-0.1078,-0.0896,-0.0869,-0.0976,-0.0972,-0.072,-0.0695,-0.0672,-0.0567,-0.0572,-0.0561,-0.0554,-0.0274,-0.0273,-0.0272,0,0,0,0,0,0,-0.1576,-0.1541,-0.123,-0.1357,-0.1315,-0.1169,-0.1097,-0.1072,-0.1018,-0.0866,-0.0839,-0.0948,-0.0719,-0.0688,-0.0575,-0.0556,-0.0556,-0.0545,-0.0275,-0.0273,-0.0272,-0.0359,0,0,0,0,0,0,-0.1588,-0.1545,-0.1515,-0.1357,-0.1309,-0.114,-0.1096,-0.1067,-0.0999,-0.099,-0.0832,-0.0806,-0.0717,-0.0593,-0.0564,-0.054,-0.0536,-0.0276,-0.0274,-0.0273,-0.0357,-0.0361,-0.0365,0,0,0,0,0,-0.1602,-0.155,-0.1514,-0.1479,-0.1268,-0.1139,-0.1111,-0.101,-0.0998,-0.0965,-0.0868,-0.0811,-0.0563,-0.0582,-0.0548,-0.0521,-0.0276,-0.0275,-0.0273,-0.0356,-0.0361,-0.0364,0,0,0,0,0,0,-0.1709,-0.1528,-0.1486,-0.1381,-0.1277,-0.1118,-0.1074,-0.1019,-0.0914,-0.091,-0.0789,-0.0754,-0.0652,-0.0575,-0.06,-0.0435,-0.0414,-0.0406,-0.0489,-0.0492,-0.0496,-0.0516,-0.0527,0,0,0,0,0,-0.1721,-0.1632,-0.1477,-0.14,-0.135,-0.1222,-0.1161,-0.1093,-0.0979,-0.0934,-0.0828,-0.0718,-0.0615,-0.055,-0.0447,-0.0346,-0.0309,-0.0311,-0.0314,-0.0318,-0.0311,-0.025,-0.0248,-0.0266,-0.0266,-0.0266,0,0,-0.1743,-0.1633,-0.1584,-0.1418,-0.1329,-0.1238,-0.1185,-0.1091,-0.1022,-0.0919,-0.0806,-0.0725,-0.0594,-0.0487,-0.0434,-0.042,-0.0298,-0.0316,-0.032,-0.031,-0.0248,-0.0247,-0.0245,-0.0265,-0.0265,-0.0265,0,0,-0.1737,-0.1646,-0.157,-0.1482,-0.1348,-0.1263,-0.1245,-0.1094,-0.1036,-0.0921,-0.0842,-0.0757,-0.0583,-0.0492,-0.0424,-0.0383,-0.0326,-0.0353,-0.037,-0.0312,-0.0311,-0.0309,-0.0292,-0.0288,-0.0347,-0.0347,-0.0347,0,-0.1781,-0.1642,-0.1538,-0.1448,-0.1377,-0.1281,-0.1202,-0.1121,-0.096,-0.0912,-0.0899,-0.0677,-0.0582,-0.0452,-0.0442,-0.039,-0.0364,-0.0369,-0.032,-0.0317,-0.0314,-0.0296,-0.0291,-0.0351,-0.0351,-0.035,-0.035,0,-0.1702,-0.1607,-0.1562,-0.1409,-0.1333,-0.1249,-0.1131,-0.1066,-0.1005,-0.0921,-0.0804,-0.0687,-0.0558,-0.0522,-0.0461,-0.0382,-0.0377,-0.0344,-0.032,-0.0318,-0.0299,-0.0292,-0.0357,-0.0356,-0.0354,-0.0353,0,0,-0.1755,-0.1546,-0.153,-0.1459,-0.1304,-0.1227,-0.1139,-0.1014,-0.0959,-0.0852,-0.0773,-0.0627,-0.0595,-0.0517,-0.0445,-0.0395,-0.0367,-0.0366,-0.0361,-0.0369,-0.027,-0.0295,-0.029,-0.0329,-0.0328,-0.0326,-0.0281,0,-0.1726,-0.1563,-0.1467,-0.1343,-0.1253,-0.116,-0.1082,-0.0978,-0.0897,-0.0808,-0.0718,-0.0616,-0.0582,-0.0534,-0.048,-0.0382,-0.0345,-0.0384,-0.0252,-0.0249,-0.0286,-0.028,-0.0306,-0.0268,-0.0273,-0.0272,-0.0271,0,-0.167,-0.1564,-0.1432,-0.1286,-0.1244,-0.1176,-0.1053,-0.0969,-0.0848,-0.0793,-0.0706,-0.0634,-0.0534,-0.052,-0.0381,-0.041,-0.035,-0.0294,-0.029,-0.0272,-0.0259,-0.026,-0.0254,-0.0248,-0.0259,-0.026,-0.0261,0,-0.1719,-0.1544,-0.1442,-0.1384,-0.1211,-0.1165,-0.1091,-0.097,-0.0901,-0.0793,-0.0746,-0.0628,-0.0562,-0.0472,-0.0368,-0.0368,-0.0239,-0.0216,-0.0188,-0.019,-0.0163,-0.0166,-0.0146,-0.0129,-0.0129,-0.0129,-0.0129,0,-0.1695,-0.1618,-0.1461,-0.1398,-0.1308,-0.1197,-0.111,-0.1028,-0.0922,-0.084,-0.0752,-0.0677,-0.0547,-0.0455,-0.0373,-0.0269,-0.0241,-0.0191,-0.017,-0.0198,-0.0204,-0.0156,-0.0155,-0.0127,-0.0128,-0.0128,-0.0128,0,-0.1734,-0.1627,-0.1509,-0.1355,-0.1314,-0.1254,-0.1121,-0.1056,-0.0971,-0.0868,-0.0838,-0.0704,-0.0591,-0.048,-0.0328,-0.0273,-0.0169,-0.0142,-0.021,-0.0198,-0.0175,-0.0178,-0.0121,-0.0107,-0.0103,-0.0103,-0.0104,0,-0.1725,-0.1663,-0.1503,-0.1442,-0.137,-0.1273,-0.1202,-0.109,-0.1019,-0.0876,-0.0827,-0.0708,-0.0607,-0.0431,-0.0319,-0.0202,-0.017,-0.0158,-0.0151,-0.0181,-0.0167,-0.0171,-0.0163,-0.0161,-0.0162,-0.0162,-0.0162,0,-0.172,-0.167,-0.1571,-0.1453,-0.137,-0.1271,-0.117,-0.1125,-0.0993,-0.0917,-0.0801,-0.0723,-0.0568,-0.045,-0.032,-0.0241,-0.0179,-0.0166,-0.0152,-0.0179,-0.022,-0.0195,-0.0217,-0.0167,-0.0167,-0.0166,-0.0166,-0.0166,-0.1733,-0.1673,-0.155,-0.1442,-0.1354,-0.1261,-0.1191,-0.1097,-0.0999,-0.0865,-0.0805,-0.0687,-0.0566,-0.0385,-0.0308,-0.0213,-0.0197,-0.0179,-0.0173,-0.017,-0.0175,-0.0238,-0.0189,-0.0189,-0.0189,-0.0188,-0.0188,0,-0.1722,-0.1638,-0.154,-0.14,-0.1315,-0.1266,-0.115,-0.1081,-0.098,-0.0872,-0.0775,-0.064,-0.0526,-0.0405,-0.0283,-0.023,-0.0198,-0.0201,-0.0203,-0.0185,-0.0198,-0.022,-0.0229,-0.0229,-0.0229,-0.0229,-0.0229,-0.0229,-0.1706,-0.16,-0.1536,-0.1385,-0.1301,-0.1186,-0.1124,-0.1037,-0.0951,-0.0805,-0.071,-0.0632,-0.0519,-0.0387,-0.0279,-0.0246,-0.0204,-0.0215,-0.0174,-0.0187,-0.0185,-0.0182,-0.0203,-0.0208,-0.0208,-0.0169,-0.0169,-0.0169]},{"header":{"parameterUnit":"m.s-1","parameterCategory":1,"la1":30.2991,"la2":30.254,"lo1":-89.0895,"lo2":-89.0444,"dy":0.0017,"dx":0.0017,"nx":28,"ny":28,"refTime":"2024-07-17T09:00:00:Z","depth":0,"parameterNumber":3,"parameterNumberName":"V-component_of_WINDS"},"data":[0,0,0,0,0,0,0,0,0,0,0,0,0,0,0,0,0,0,0,0,0,0,0,0,0,0,0,0,0,0,0,0,0,0,0,0,0,0,0,0,0,0,0,0,0,0,0,0,0,0,0,0,0,0,0,0,0,0,7.0567,7.0568,0,7.0582,7.0582,7.0582,7.0507,7.0504,7.0502,7.05,7.0512,7.0514,7.0516,0,0,0,0,0,0,0,0,0,0,0,0,0,7.0471,7.0473,7.0567,7.0568,7.0568,7.0582,7.0582,7.0582,7.0507,7.0504,7.0502,7.0499,7.0511,7.0514,7.0516,0,0,0,0,0,0,0,0,0,0,0,0,0,7.0502,7.0474,7.0567,7.0532,7.0529,7.0582,7.0582,7.0582,7.0507,7.0504,7.0501,7.0498,7.051,7.0513,7.0517,7.0603,0,0,7.0527,7.0529,0,0,0,0,0,0,0,0,7.05,7.0506,7.0537,7.0534,7.0531,7.0539,7.0552,7.0589,7.0508,7.0516,7.05,7.0496,7.0523,7.0525,7.0535,7.0604,7.0604,7.0528,7.053,7.0531,7.0532,0,0,0,0,0,0,0,7.0498,7.0505,7.0573,7.0538,7.0534,7.0514,7.0515,7.0559,7.0537,7.0515,7.0509,7.0512,7.0521,7.0532,7.0535,7.0604,7.0528,7.0531,7.0533,7.0534,7.0744,7.0747,0,0,0,0,0,0,7.0501,7.0503,7.0572,7.0573,7.0508,7.0519,7.052,7.054,7.0537,7.0533,7.0515,7.0509,7.0528,7.0531,7.0535,7.0635,7.0531,7.0535,7.0537,7.0741,7.0745,7.0749,0,0,0,0,0,0,7.05,7.0508,7.0572,7.0537,7.0543,7.0524,7.0547,7.0542,7.0553,7.0537,7.0532,7.053,7.0525,7.053,7.0587,7.0635,7.0536,7.0539,7.0736,7.0742,7.0747,7.0837,0,0,0,0,0,0,7.0497,7.0508,7.0542,7.0538,7.0546,7.0625,7.055,7.0544,7.0559,7.0551,7.055,7.0547,7.0523,7.0582,7.059,7.0638,7.0542,7.0732,7.0739,7.0745,7.083,7.0845,7.0858,0,0,0,0,0,7.0494,7.0566,7.0544,7.0552,7.0587,7.0628,7.0632,7.0604,7.0563,7.0596,7.0586,7.0547,7.0629,7.0589,7.0597,7.0646,7.0729,7.0737,7.0745,7.0824,7.0842,7.0858,0,0,0,0,0,0,7.0574,7.0565,7.054,7.0613,7.0622,7.0615,7.0655,7.0624,7.0644,7.0635,7.0599,7.0599,7.0662,7.066,7.0616,7.0729,7.0671,7.0681,7.0729,7.0746,7.076,7.0758,7.0545,0,0,0,0,0,7.06,7.0635,7.0625,7.069,7.0696,7.0675,7.0692,7.067,7.0677,7.068,7.0674,7.0681,7.0709,7.0727,7.0751,7.083,7.0828,7.0868,7.0882,7.0893,7.0902,7.0942,7.096,7.0774,7.0774,7.0774,0,0,7.0654,7.0654,7.0678,7.0706,7.071,7.0746,7.0679,7.0719,7.0745,7.0686,7.0739,7.0735,7.0741,7.0809,7.0839,7.0809,7.0953,7.0903,7.0912,7.0915,7.0952,7.097,7.0985,7.078,7.0779,7.0778,0,0,7.0771,7.0775,7.083,7.0836,7.0843,7.0829,7.0843,7.0841,7.0836,7.0889,7.0845,7.0875,7.0923,7.0929,7.0938,7.1058,7.1023,7.1067,7.114,7.118,7.1194,7.1207,7.1249,7.1265,7.1076,7.1076,7.1077,0,7.0837,7.0891,7.0861,7.0905,7.0919,7.0868,7.0922,7.0929,7.0944,7.0954,7.0921,7.098,7.0981,7.1049,7.1078,7.1088,7.1101,7.1067,7.1195,7.1207,7.1219,7.1259,7.1275,7.1082,7.1081,7.1081,7.108,0,7.0971,7.1009,7.1052,7.1069,7.1087,7.1136,7.1113,7.1135,7.1112,7.1101,7.1156,7.1155,7.1178,7.1192,7.1169,7.1258,7.1239,7.1201,7.1142,7.1242,7.1279,7.1294,7.1089,7.1087,7.1086,7.1085,0,0,7.1137,7.1139,7.1155,7.1162,7.1167,7.1195,7.1241,7.1265,7.1284,7.1296,7.1334,7.1376,7.1341,7.1352,7.1329,7.1364,7.1459,7.1322,7.1322,7.1347,7.1555,7.1583,7.1601,7.1436,7.1439,7.1441,7.1554,0,7.1251,7.1332,7.1307,7.1388,7.1421,7.1374,7.1414,7.1421,7.1413,7.1439,7.1429,7.1459,7.1411,7.1418,7.1451,7.1441,7.15,7.1432,7.1469,7.1471,7.1468,7.162,7.165,7.1757,7.1569,7.1571,7.1573,0,7.1395,7.1414,7.1498,7.1498,7.1511,7.1548,7.1568,7.1594,7.1601,7.1592,7.1605,7.1575,7.1619,7.1561,7.1621,7.1576,7.159,7.1587,7.159,7.1592,7.1527,7.1625,7.1791,7.1807,7.1595,7.1593,7.1592,0,7.1507,7.1554,7.161,7.1618,7.1619,7.1646,7.1647,7.1651,7.1667,7.1684,7.1694,7.1715,7.1727,7.1744,7.1721,7.1681,7.1784,7.1724,7.1777,7.1778,7.18,7.1799,7.197,7.1811,7.1811,7.181,7.181,0,7.1636,7.1689,7.1661,7.1695,7.1753,7.1724,7.1782,7.1778,7.1782,7.1814,7.1774,7.1805,7.1773,7.1801,7.1782,7.1835,7.184,7.1834,7.1828,7.1837,7.1838,7.1845,7.1837,7.1815,7.1814,7.1813,7.1812,0,7.177,7.1754,7.1812,7.1809,7.1809,7.1852,7.1849,7.188,7.1869,7.191,7.1918,7.19,7.1931,7.191,7.194,7.1928,7.1997,7.1981,7.1995,7.199,7.2044,7.2039,7.2224,7.2247,7.2075,7.2076,7.2078,0,7.1854,7.1894,7.1895,7.1915,7.1919,7.1951,7.1967,7.194,7.1958,7.197,7.2,7.2027,7.2047,7.2099,7.2088,7.211,7.2095,7.2158,7.2098,7.2105,7.2095,7.2092,7.2096,7.217,7.2172,7.2173,7.2175,0,7.2003,7.1993,7.2018,7.2042,7.2063,7.2079,7.2092,7.211,7.2083,7.2105,7.2137,7.2153,7.2185,7.2212,7.2231,7.2231,7.2199,7.2194,7.2207,7.2217,7.2223,7.222,7.2027,7.219,7.2188,7.2187,7.2186,7.2186,7.2113,7.2147,7.2154,7.2184,7.2191,7.2204,7.2234,7.2227,7.2253,7.2277,7.2259,7.2297,7.2302,7.2325,7.2329,7.2357,7.2331,7.2351,7.2356,7.2361,7.2368,7.2219,7.2361,7.236,7.236,7.2359,7.2359,0,7.226,7.2262,7.229,7.2311,7.2334,7.2303,7.2316,7.2337,7.2371,7.238,7.2401,7.2437,7.2464,7.2456,7.2479,7.2503,7.2489,7.251,7.2508,7.2509,7.239,7.2376,7.2522,7.2522,7.2522,7.2522,7.2522,7.2522,7.2339,7.2394,7.2385,7.2443,7.2444,7.2481,7.2492,7.2503,7.251,7.2553,7.2575,7.257,7.2572,7.2595,7.2618,7.2615,7.2625,7.2652,7.2643,7.2533,7.2517,7.2501,7.2488,7.2655,7.2655,7.2759,7.276,7.2761]}]]